Svenska Orienteringsförbundet

Officiell resultatlista för Panvåren, medel

TävlingsinformationVisa resultatlista per organisationPressresultatlistaLadda upp ruttSkriv ut

Tävlingens namn: Panvåren, medel
Arrangörsorganisation: OK Pan-Kristianstad
Datum: lördag 5 mars 2016

D21

3 620 m, 84 startande
PlacNamnOrganisationTidDiffKm-tid R
1Lizzie InghamHalden SK20:165:35
2Amanda Falck WeberEksjö SOK20:20+0:045:37
3Ellinor TjernlundOK Tisaren20:55+0:395:46
4Jolanta KolosinskaOK Skogsfalken21:15+0:595:52
5Eva JurenikovaHalden SK21:36+1:205:58
6Ane LindeOK Pan Århus21:49+1:336:01
7Jo ShepherdHalden SK21:54+1:386:02
8Viktoria ErnstssonGöteborg-Majorna OK21:56+1:406:03
9Cecilia BrattOK Orion22:01+1:456:04
9Frida AnderssonFalkenbergs OK22:01+1:456:04
11Anna WehlinSkogspojkarnas OK22:06+1:506:06
12Ewa GwózdzOK Orion22:16+2:006:09
13Josefine KlintbergOK Ravinen22:28+2:126:12
14Anette GranstedtIK Hakarpspojkarna22:35+2:196:14
15Stine Bagger HagnerOK Pan Århus22:46+2:306:17
16Elin SvenssonIK Hakarpspojkarna22:53+2:376:19
17Vera MullerovaTisvilde Hegn OK22:57+2:416:20
18Agata StankiewiczOK Orion23:05+2:496:22
19Anna EnvallIK Hakarpspojkarna23:07+2:516:23
20Elin MånssonIFK Göteborg23:24+3:086:27
21Iben ValeryTisvilde Hegn OK23:32+3:166:30
22Frida Jönsson HellstadiusSödertälje-Nykvarn Orientering23:48+3:326:34
23Mette HjerrildOK Pan Århus23:49+3:336:34
24Masha SemakTisvilde Hegn OK23:50+3:346:35
25Kajsa HammarströmLinköpings OK23:53+3:376:35
26Helen PalmerHalden SK24:01+3:456:38
27Sara JonssonOK Orion24:13+3:576:41
28Julia DavidssonÄrla IF24:20+4:046:43
29Hanna Haugen NordbrødenHalden SK24:23+4:076:44
30Elsa TörnrosTumba-Mälarhöjden OK24:26+4:106:44
31Caroline Edel Gjøtterup FrederiksenOK Pan Århus24:29+4:136:45
32Hanna PalmIK Hakarpspojkarna24:34+4:186:47
33Moa SvenssonIK Hakarpspojkarna24:37+4:216:48
34Josefine CarlssonIFK Göteborg24:41+4:256:49
35Emma LindénFK Friskus-Varberg24:50+4:346:51
36Nicole ScaletLinköpings OK24:58+4:426:53
37Anneke Hald BjørgumJärla IF OK25:19+5:036:59
38Astrid Ank JørgensenOK Pan Århus25:27+5:117:01
39Sara Snogerup LinseLunds OK25:30+5:147:02
39Susanna ForsellMotala AIF OL25:30+5:147:02
41Lisa FolinoKarlskrona SoK25:31+5:157:02
42Maria ArvidssonGöteborg-Majorna OK25:41+5:257:05
43Aina EdgrenTrollhättans SOK25:49+5:337:07
44Therese KlintbergLinköpings OK26:20+6:047:16
45Linnéa HolmqvistHagaby GOIF26:39+6:237:21
46Yevheniia ShcherbakovaRonneby OK27:07+6:517:29
47Sofia GrawéÄrla IF27:15+6:597:31
48Mette StubPI-København27:16+7:007:31
49Julia DahlHelsingborgs SOK27:33+7:177:36
50Louise BorgTrollhättans SOK27:34+7:187:36
51Josephine RegnellVäxjö OK27:40+7:247:38
52Maria JohanssonTorsås OK27:45+7:297:39
53Stina BergSävedalens AIK27:54+7:387:42
54Anna ArvidssonKalmar OK27:59+7:437:43
55Elin WallquistVäxjö OK28:07+7:517:46
56Hanna Modig TjärnströmLinköpings OK28:37+8:217:54
57Åsa SöderblomFalkenbergs OK28:51+8:357:58
58Karin FägerlindCentrum OK29:01+8:458:00
59Linda WesterbergTrollhättans SOK30:12+9:568:20
60Caroline LindelöwHärlövs IF31:26+11:108:40
61Ane Sofie Næss BjørgulOK Pan Århus31:29+11:138:41
62Sara JonassonCentrum OK31:37+11:218:44
63Matilda MartinssonFalkenbergs OK31:56+11:408:49
64Karna ThorssonOK Linné32:00+11:448:50
65Julia Modig TjärnströmLinköpings OK33:44+13:289:19
66Lucie KomarkovaHjärnarps OL33:59+13:439:23
67Alicia FribergFalköpings AIK OK34:33+14:179:32
68Marie JinnemoHjärnarps OL35:16+15:009:44
69Elinor LindelöwHärlövs IF35:18+15:029:45
70Linnea GillbergCentrum OK36:56+16:4010:12
71Jessica KarlssonOK Torfinn38:00+17:4410:29
72Annie LennartssonSkåneslättens OK38:05+17:4910:31
73Linda JinnemoHjärnarps OL39:28+19:1210:54
74Evelina FolkessonOK Torfinn39:57+19:4111:02
75Wiviann OttossonMalmö OK41:06+20:5011:21
76Emily B. TempleOK Pan Århus45:42+25:2612:37
77Petra ÖrlegårdLunds OK45:52+25:3612:40
78Anna FreijLunds OK49:12+28:5613:35
79Lisa AnderssonÄrla IF49:50+29:3413:45
80Eleonore BjerstedtHässleholms OK50:00+29:4413:48
81Kajsa KarlssonOK Kontinent58:14+37:5816:05
82Katrine BegtrupOK Pan Århus1:03:24+43:0817:30
Frida BrogrenSävedalens AIKej godkänd
Linnéa EngstedtTullinge SKej godkänd
Maja AlmOK Pan Århusej start
Karin ElofssonFjärås AIKej start
Cecilie Friberg KlysnerOK Pan Århusej start
Emma KlingenbergJärla IF OKej start
Ellinor ErikssonKFUM Örebro OKej start

H21

4 640 m, 105 startande
PlacNamnOrganisationTidDiffKm-tid R
1Johan RunessonGöteborg-Majorna OK20:074:20
1Thor NørskovIFK Göteborg20:074:20
3Tue LassenOK Pan Århus20:39+0:324:27
4Denys ShcherbakovRonneby OK20:45+0:384:28
5Hans Petter MathisenFredrikstad SK21:13+1:064:34
6Hugo LindellLånghundra IF21:16+1:094:35
7Rasmus SøesTisvilde Hegn OK21:23+1:164:36
8Christian TingströmGöteborg-Majorna OK21:34+1:274:38
9Andreas Hougaard BoesenOK Pan Århus21:58+1:514:44
10Eskil SchøningOK Pan Århus22:30+2:234:50
11Jacob LindstamOK Ravinen22:34+2:274:51
12Markus HolterHalden SK22:41+2:344:53
13Philip PerssonOK Orion22:59+2:524:57
14Hugo MattssonSkåneslättens OK23:09+3:024:59
15Jonas MuntheOK Pan Århus23:31+3:245:04
16Yuri OmelchenkoOK Orion23:32+3:255:04
17Aleksander BernaciakOK Orion23:33+3:265:04
18Johan TörnrothHestra IK23:39+3:325:05
19Fredrik EliassonHalden SK23:50+3:435:08
20Erik LindgrenKFUM Örebro OK23:53+3:465:08
21Anton WibergOK Skogsfalken24:20+4:135:14
22Niclas TjernlundOK Vilse 8724:25+4:185:15
23Martin JanssonOK Rodhen24:28+4:215:16
23Magnus DewettOK Pan Århus24:28+4:215:16
25Jonathan GunnarssonMalmö OK24:30+4:235:16
25Matthieu PuechIFK Göteborg24:30+4:235:16
27Jeppe RuudOK Pan Århus24:35+4:285:17
28Anders Konring OlesenOK Pan Århus24:36+4:295:18
29Nils Wallentin TärkHalmstad OK24:43+4:365:19
30Patrik JohanssonHelsingborgs SOK24:46+4:395:20
30Maxime BonneauLinköpings OK24:46+4:395:20
32Joakim TörnrosTumba-Mälarhöjden OK24:49+4:425:20
33Erik JanssonKFUM Örebro OK25:00+4:535:23
34Espen FiskumHalden SK25:01+4:545:23
35Niklas BrattOK Orion25:04+4:575:24
36Joakim AxelssonTrollhättans SOK25:06+4:595:24
36Victor BergstrandMotala AIF OL25:06+4:595:24
38Mikolaj DutkowskiRonneby OK25:09+5:025:25
39Håkan ÖhlundIK Hakarpspojkarna25:10+5:035:25
40Björn KarlssonHalmstad OK25:19+5:125:27
41Giacomo FrattariOK Pan Århus25:25+5:185:28
42Per HjerrildOK Pan Århus25:34+5:275:30
43Jonas Falck WeberTisvilde Hegn OK25:44+5:375:32
44Martin HogedalOK Alehof26:05+5:585:37
45Bertram Kopp StannumTisvilde Hegn OK26:06+5:595:37
46Felix AlnervikHelsingborgs SOK26:09+6:025:38
47Per LenanderVäxjö OK26:11+6:045:38
48Kevin StåhlOK Hammaren26:27+6:205:42
49David HectorSnättringe SK26:29+6:225:42
50Oskar HöglundMotala AIF OL26:32+6:255:43
51Johan LarssonOK Skogshjortarna26:36+6:295:43
52Niklas Hjort IngwersenOK Pan Århus26:46+6:395:46
53Mattias NilssonOK Alehof26:50+6:435:46
54Jonas HjertFalköpings AIK OK26:59+6:525:48
55Oskar CervinHelsingborgs SOK27:05+6:585:50
56Johan PerssonHagaby GOIF27:15+7:085:52
57Johan EngströmOK Orion27:25+7:185:54
58Kjell Arild KarlsenFredrikstad SK27:32+7:255:56
59Emil FolinoKarlskrona SoK27:42+7:355:58
60Christian RotvikerCentrum OK27:53+7:466:00
60Kristian VadHalden SK27:53+7:466:00
62Henrik JonssonOK Rodhen28:13+8:066:04
63Jonatan AnderssonFalkenbergs OK28:14+8:076:05
64Johan SandströmTrollhättans SOK28:22+8:156:06
65Adam GranstedtIK Hakarpspojkarna28:28+8:216:08
66Rickard IngessonLunds OK28:31+8:246:08
67Rasmus BlockgrenFalkenbergs OK28:35+8:286:09
68Viktor AntonssonEksjö SOK28:53+8:466:13
69Henrik Rindom KnudsenOK Pan Århus28:56+8:496:14
70Joakim SjöbergHelsingborgs SOK29:01+8:546:15
71Eric HanssonIK Hakarpspojkarna29:05+8:586:16
72Otto LundmanOK Roslagen29:17+9:106:18
73Erik MelénMotala AIF OL29:36+9:296:22
74Henrik BengtssonFalkenbergs OK29:51+9:446:25
75Joel BergkvistCentrum OK29:56+9:496:27
76Joel Käll KarlssonLinköpings OK29:58+9:516:27
77Marcus SvenssonFK Boken30:01+9:546:28
78Claes AnderssonFalkenbergs OK30:04+9:576:28
79Bo SöderqvistIK Hakarpspojkarna30:52+10:456:39
80Gabriel BengtssonStigmännen Karlshamns OK30:54+10:476:39
81Simon BörjesonRyda SK31:15+11:086:44
82Robin WestessonOK Kontinent31:58+11:516:53
83Gustav ÅhrénMotala AIF OL32:07+12:006:55
84Tomas HolmbergOK Södertörn32:52+12:457:05
85Stefan Frands PetersenOK Pan Århus35:18+15:117:36
86Jon HenrikssonOK Skogsfalken35:26+15:197:38
87Anders YngveIK Hakarpspojkarna35:43+15:367:41
88Mattias JacobssonMalmö OK36:43+16:367:54
89Karl UtterbackMalmö OK36:56+16:497:57
90Petter ValleriusGamleby OK38:41+18:348:20
91Johan HagströmFalkenbergs OK38:50+18:438:22
92Daniel NilssonSkåneslättens OK38:56+18:498:23
93Per HolmbergRonneby OK39:01+18:548:24
94Lasse GrønOK Pan Århus39:06+18:598:25
95Mattias ÅgrenCentrum OK39:43+19:368:33
96Tomas TörnqvistKarlskrona SoK40:43+20:368:46
97Emanuel StridOK Torfinn41:43+21:368:59
98Jonas BoströmLunds OK42:29+22:229:09
99Tommy GartingMalmö OK43:07+23:009:17
100Kevin MatrosovsSage Orienteering and Rogainin43:22+23:159:20
101Henrik LundgrenCentrum OK44:32+24:259:35
102Julius GonsiorLinköpings OK53:10+33:0311:27 Ladda ner rutt i gpx-format
103Fredrik AhnlénOK Hammaren53:52+33:4511:36
104Joel BjerstedtHässleholms OK1:03:00+42:5313:34
Aske JepsenOK Pan Århusej godkänd
Mattias JohanssonIFK Mora OKej start
Felix PerssonHalmstad OKej start
Andreas FermFK Göingarnaej start
Marcus AnderssonOK Skogsfalkenej start
Niklas ThörnOK Vilse 87ej start

D20

3 530 m, 15 startande
PlacNamnOrganisationTidDiffKm-tid R
1Hanna LindströmOK Tranan21:116:00
2Louise LundgrenVäxjö OK21:59+0:486:13
3Moa PetterssonKarlskrona SoK22:55+1:446:29
4Josefine KristianssonTrollhättans SOK23:44+2:336:43
5Julia HedOK Skogsfalken25:01+3:507:05
6Gina GranstedtHalden SK25:03+3:527:05
7Amanda JohanssonOK Orion25:15+4:047:09
8Elin LindbergOK Djerf26:08+4:577:24
9Nina Asheim BirkelandHalden SK27:18+6:077:44
10Karin HagwallLunds OK29:49+8:388:26
11Helena HagströmFalkenbergs OK30:42+9:318:41
12Linnea GustafssonOK Gynge35:33+14:2210:04
13Madelene AxelssonHärlövs IF36:35+15:2410:21
14Cecilia SpångbergLunds OK38:33+17:2210:55
15Matilda NilssonFK Göingarna38:59+17:4811:02
Annie ÖnstenIK Hakarpspojkarnaej start

H20

3 990 m, 23 startande
PlacNamnOrganisationTidDiffKm-tid R
1Emil ØbroOK Orion18:554:44
2Håkon Raadal BjørloHalden SK19:23+0:284:51
3Mattis HallbergIK Uven20:28+1:335:07
3Vegard Jarvis WestergårdHalden SK20:28+1:335:07
5Malthe GaarsdalTisvilde Hegn OK20:36+1:415:09
6Karl FremstadHalden SK20:46+1:515:12
7Arvid NordIK Hakarpspojkarna20:48+1:535:12
8Martin DjerfIK Hakarpspojkarna20:49+1:545:13
9Sven EngströmLinköpings OK20:50+1:555:13
10Laurits Bidstrup MøllerOK Pan Århus21:07+2:125:17
11Peter NordbrødenHalden SK21:29+2:345:23
12Ola AnderssonOK Orion21:39+2:445:25
13Carl Emil Schøier KovstedTisvilde Hegn OK21:51+2:565:28
14David SvenssonSkåneslättens OK23:39+4:445:55
15Jesper LindströmIF Hagen23:45+4:505:57
16Simon RuneforsVäxjö OK23:48+4:535:57
17Hampus LarssonFK Göingarna25:32+6:376:23
18Robin ZschäckelSV IHW Alex 78 Berlin e.V.25:54+6:596:29
18Andreas Duc JørgensenTisvilde Hegn OK25:54+6:596:29
20Asger Skytte KirkegaardTisvilde Hegn OK26:25+7:306:37
21Rasmus ArfwedsonFrölunda OL28:14+9:197:04
22Jaromir MielecIK Hakarpspojkarna31:22+12:277:51
23Arne LindströmTorsås OK48:00+29:0512:01
Erik ZeilonSkåneslättens OKej start

D18

3 540 m, 20 startande
PlacNamnOrganisationTidDiffKm-tid R
1Klara AxelssonMarkbygdens OK23:356:39
2Amanda RangertIK Hakarpspojkarna24:23+0:486:53
3Jenny BredfeltLunds OK25:39+2:047:14
4Tova OlssonIK Hakarpspojkarna25:58+2:237:20
5Myrra CarlssonOK Orion26:16+2:417:25
6Jenny WegebroUmeå OK26:57+3:227:36
7Ebba EnvallIK Hakarpspojkarna27:10+3:357:40
8Lovisa TorstenssonEmmaboda Verda OK28:24+4:498:01
9Tova HermodssonLunds OK29:04+5:298:12
10Ebba SöderlundTormestorps IF29:17+5:428:16
11Maria ErikssonEds SK30:25+6:508:35
12Alice Svensson FinndahlIK Hakarpspojkarna31:43+8:088:57
13Ellen AnderssonStigmännen Karlshamns OK32:13+8:389:06
14Malin ThornemanHelsingborgs SOK33:24+9:499:26
15Alice HultinOK Löftan34:12+10:379:39
16Sofia DahlHärlövs IF34:19+10:449:41
17Elin PoschJönköpings OK39:39+16:0411:12
18Louise DrenthHelsingborgs SOK40:29+16:5411:26
19Stina ErikssonJönköpings OK40:45+17:1011:30
20Erica HenrikssonSimrishamns OK52:48+29:1314:54
Mimmi DahlbergBredaryds SOKej start

H18

3 560 m, 37 startande
PlacNamnOrganisationTidDiffKm-tid R
1Herman Ryen MartinsenFredrikstad SK19:425:32
2Trygve Kristoffe LøvliHalden SK19:44+0:025:32
3Elias EkvallTrollhättans SOK20:00+0:185:37
4Lukas LundgrenVäxjö OK20:02+0:205:37
5Oscar JohanssonKarlskrona SoK20:10+0:285:39
6Felix AxelssonMarkbygdens OK20:34+0:525:46
7Isak HertinVästerviks OK20:49+1:075:50
8August Asheim BirkelandHalden SK21:05+1:235:55
9Erlend BrendstuenHalden SK21:47+2:056:07
10Filip TrofastBredaryds SOK21:49+2:076:07
11Arvid ClaessonJönköpings OK21:50+2:086:07
12Alex CarcasHalden SK22:07+2:256:12
13Hannes SvahnOK Ravinen22:22+2:406:16
14Andreas JonssonOK Orion22:40+2:586:22
15Axel HalvarssonKarlskrona SoK22:44+3:026:23
16Olav Schmitt GranHalden SK22:52+3:106:25
17Adam SegerslättSkåneslättens OK22:57+3:156:26
18Nils GripKalmar OK22:58+3:166:27
19Johan LammFrölunda OL23:00+3:186:27
20Albin AlsiöIF Hagen23:48+4:066:41
21Martin MörsellOK Kåre24:36+4:546:54
22Viktor OssianssonIK Hakarpspojkarna25:07+5:257:03
23Hampus LindmanIK Hakarpspojkarna25:08+5:267:03
24Olle SörqvistMarkbygdens OK25:21+5:397:07
25Fritjof AxelssonFK Göingarna26:55+7:137:33
26Albin HenryssonKarlskrona SoK27:08+7:267:37
27Erik VinbladLunds OK27:21+7:397:40
28Alexander GraadRonneby OK27:44+8:027:47
29Oscar LangVästerviks OK28:17+8:357:56
30Mikkel MeldgaardAllerød OK28:52+9:108:06
31Jørgen VisterHalden SK29:24+9:428:15
32Lasse August HelwegTisvilde Hegn OK30:48+11:068:39
33Anton HåkanssonLunds OK34:25+14:439:40
34Gustav NilssonHelsingborgs SOK35:21+15:399:55
35Albin LagerNässjö OK36:53+17:1110:21
36Alexander Skaug YtterbølHalden SK40:30+20:4811:22
Hampus NyströmIF Hagenej godkänd
Oliwer LundbergOK Bävernej start
Tim OlssonBrattås CKej start
Emil PetterssonKarlskrona SoKej start

D16

3 520 m, 46 startande
PlacNamnOrganisationTidDiffKm-tid R
1Isa EnvallIK Hakarpspojkarna20:495:54
2Sara GranstedtIK Hakarpspojkarna22:15+1:266:19
3Ella OlssonGrycksbo IF OK23:05+2:166:33
4Hanna JohannessonRonneby OK23:11+2:226:35
5Ellen KallerbäckEmmaboda Verda OK23:37+2:486:42
6Hilda AxelssonFK Göingarna24:19+3:306:54
7Moa AlsiöFalköpings AIK OK24:27+3:386:56
8Lovisa LagerHalmstad OK24:58+4:097:05
9Ebba HjertbergHestra IK25:11+4:227:09
10Irmalinn NilssonHärlövs IF25:23+4:347:12
11Johanna Källvik LeufvénÅmåls OK26:04+5:157:24
12Alma Holmqvist JohanssonIK Hakarpspojkarna26:06+5:177:24
13Selma GumaeliusWaxholms OK26:30+5:417:31
14Alva SonessonFalköpings AIK OK26:33+5:447:32
15Lovisa JohanssonKarlskrona SoK26:36+5:477:33
16Elin SvenssonOK Älme26:50+6:017:37
17Clara DahlHärlövs IF26:52+6:037:37
18Ebba JensenSkåneslättens OK27:20+6:317:45
18Julia RangertIK Hakarpspojkarna27:20+6:317:45
18Ella PalmIK Hakarpspojkarna27:20+6:317:45
21Linnea DagsbergOK Orion27:26+6:377:47
22Elvira WildheimFK Friskus-Varberg27:30+6:417:48
23Maja PorleVäxjö OK27:33+6:447:49
24Lotten KindlundhFK Finn28:43+7:548:09
25Alicia LundgrenVäxjö OK28:55+8:068:12
26Maja TenghagenHärlövs IF30:07+9:188:33
27Ellen WahlbomOK Orion30:45+9:568:44
28Lovisa WeidenSkåneslättens OK31:28+10:398:56
29Louise LagerqvistRonneby OK32:42+11:539:17
30Ophelia Almqvist HaasNybro OK34:24+13:359:46
31Alma LeijonHärlövs IF34:38+13:499:50
32Katarina NorrbyOK Södertörn34:57+14:089:55
33Elsa EricssonFK Friskus-Varberg36:18+15:2910:18
34Tina LjungqvistLunds OK36:19+15:3010:19
35Tove JohanssonOK Alehof37:07+16:1810:32
36Paulina JägstedtHalmstad OK38:56+18:0711:03
37Emma NilssonAlvesta SOK40:09+19:2011:24
38Johanna WilhelmssonKarlskrona SoK42:03+21:1411:56
39Evelina OlssonOK Nackhe42:26+21:3712:03
40Lina ErdeliusIF Rigor44:05+23:1612:31
41Ellen BlennowFalköpings AIK OK45:06+24:1712:48
42Astrid EricssonLunds OK46:24+25:3513:10
43Elsa LindeblomHestra IK48:56+28:0713:54
44Kajsa ToftnerOK Kompassen49:56+29:0714:11
Anna AronssonHässleholms OKej godkänd
Kajsa AnderssonOK Orionej godkänd
Erika Källvik LeufvénÅmåls OKej start

H16

3 680 m, 37 startande
PlacNamnOrganisationTidDiffKm-tid R
1Simon HardenFK Boken19:575:25
2Gustav RuneforsVäxjö OK20:06+0:095:27
3Emil AuseliusBredaryds SOK20:45+0:485:38
4Thorsten SvenssonFinspångs SOK22:24+2:276:05
5Erik HogedalGöteborg-Majorna OK23:23+3:266:21
6Linus LundbergOK Bävern23:48+3:516:28
7Joar HertinVästerviks OK23:51+3:546:28
8Albin TollOK Njudung24:14+4:176:35
9Victor HanssonJönköpings OK25:17+5:206:52
10Gunnar EngströmLinköpings OK25:20+5:236:53
11Jakob Schøier KovstedTisvilde Hegn OK25:25+5:286:54
12Alfred PetterssonFalköpings AIK OK25:36+5:396:57
13Isac EricssonVäxjö OK25:38+5:416:57
14William LundstedtMullsjö SOK25:40+5:436:58
15Lasse Falck WeberTisvilde Hegn OK26:23+6:267:10
16Filip JohanssonTrollhättans SOK26:54+6:577:18
17Adrian VartiaOK Löftan27:04+7:077:21
18Tim JohanssonFK Friskus-Varberg28:05+8:087:37
19Eric BerlinTrollhättans SOK28:37+8:407:46
20Daniel HellbergLunds OK30:08+10:118:11
21Axel ToressonLunds OK30:17+10:208:13
22Axel OrrhedeHelsingborgs SOK30:26+10:298:16
23Love CarlssonOK Orion32:10+12:138:44
24Jacob MobergHelsingborgs SOK34:07+14:109:16
25Oscar NilssonAlvesta SOK34:27+14:309:21
26Elias TorstenssonEmmaboda Verda OK34:56+14:599:29
27Noah BechtelFK Friskus-Varberg36:58+17:0110:02
28Oliver ValleriusGamleby OK38:45+18:4810:31
29Anders BjörklundTrollhättans SOK39:39+19:4210:46
30Samuel ErikssonEds SK40:05+20:0810:53
31Julius PukeYstads OK40:30+20:3311:00
32Samuel LåstbomHärlövs IF40:36+20:3911:01
33Oscar EhrnbornAndrarums IF51:01+31:0413:51
34Emil NilssonAndrarums IF52:09+32:1214:10
35Aron ThorénRonneby OK54:20+34:2314:45
36Andreas GrönvallHelsingborgs SOK54:46+34:4914:52
37Tyr HäggströmAndrarums IF1:02:37+42:4017:00
Gustav ÅmanOK Vilse 87ej start
Hugo StrömUlricehamns OKej start
Allan HedbergLunds OKej start
Erik HannrupIF Thorej start
Povel HedbergLunds OKej start
Lukas GranstedtIK Hakarpspojkarnaej start

D16 Kort

2 880 m, 2 startande
PlacNamnOrganisationTidDiffKm-tid R
1Matilda GraadRonneby OK24:078:22
2Martina SundelinOK Orion41:00+16:5314:14

H16 Kort

2 880 m, 4 startande
PlacNamnOrganisationTidDiffKm-tid R
1Jakob ZällHjärnarps OL25:508:58
2Ludvig ZaarLunds OK28:04+2:149:44
3Jonathan LjungbergOK Skogsfalken35:21+9:3112:16
4Alfred WessbergHärlövs IF44:15+18:2515:21
Samuel HåkanssonRonneby OKej start

D14

2 880 m, 27 startande
PlacNamnOrganisationTidDiffKm-tid R
1Nellie RydlundHässleholms OK19:526:53
2Klara AnderssonOK Orion20:13+0:217:01
3Elin EmilssonOK Skogsfalken21:50+1:587:34
4Thea BökmanHelsingborgs SOK22:37+2:457:51
5Moa SkoogIF Hagen24:02+4:108:20
6Tilda PalmIK Hakarpspojkarna24:10+4:188:23
7Eira HertinVästerviks OK24:25+4:338:28
8Hanna RingRonneby OK25:05+5:138:42
9Tea MarkholmSkåneslättens OK25:19+5:278:47
10Moa ErikssonTrollhättans SOK25:59+6:079:01
11Amanda KarmetunOK Njudung26:27+6:359:11
12Thilda SeldénIF Rigor26:29+6:379:11
13Elsa SonessonFalköpings AIK OK27:11+7:199:26
14Linnea LeijonHärlövs IF28:37+8:459:56
15Ella SöderbergOK Skogsfalken29:02+9:1010:04
16Nellie NilssonOK Orion29:10+9:1810:07
17Amanda SvenssonOK Orion29:22+9:3010:11
18Ella BrattOK Orion32:22+12:3011:14
19Emma EliassonFK Friskus-Varberg33:09+13:1711:30
20Klara PerssonHalmstad OK34:46+14:5412:04
21Elin NilssonAndrarums IF36:05+16:1312:31
22Ellen AnderssonHagaby GOIF37:03+17:1112:51
23Elvira LjungbergOK Skogsfalken43:52+24:0015:13
24Elsa EricssonLunds OK44:34+24:4215:28
25Clara EhrnbornAndrarums IF45:25+25:3315:46
26Fredrika KindlundhFK Finn52:04+32:1218:04
Emelie RengmyrIF Rigorej godkänd
Hilda Holmqvist JohanssonIK Hakarpspojkarnaej start

H14

2 880 m, 42 startande
PlacNamnOrganisationTidDiffKm-tid R
1Noel BraunVäxjö OK16:225:40
2Axel ElmbladBredaryds SOK17:25+1:036:02
3Jesper JohanssonOK Löftan17:30+1:086:04
4Albin PerssonHalmstad OK18:01+1:396:15
5Arvid KronmarKarlskrona SoK18:29+2:076:25
6Anton GunnarssonBredaryds SOK19:05+2:436:37
7Arvid AronssonOK Kroppefjäll20:01+3:396:57
8Loke HedbergLunds OK20:05+3:436:58
9Viktor GunnarssonIK Hakarpspojkarna20:09+3:476:59
10Carl ÅsLunds OK20:22+4:007:04
11Olle KallerbäckEmmaboda Verda OK20:36+4:147:09
12Adam ConwayGuildford Orienteers20:38+4:167:09
13Hugo LarssonKarlskrona SoK20:57+4:357:16
14Hugo EricssonVäxjö OK21:00+4:387:17
15Edvin SelinFK Göingarna21:20+4:587:24
16Erik ÅkessonVäxjö OK22:06+5:447:40
17Brian AhlmAndrarums IF22:08+5:467:41
18Maxim OmelchenkoKarlskrona SoK22:36+6:147:50
19Felix GustafssonLunds OK22:42+6:207:52
20Alex JohanssonFK Friskus-Varberg23:08+6:468:01
21Karl PetersénOK Njudung23:12+6:508:03
22Albin WeidenSkåneslättens OK23:17+6:558:05
23Erik ThoressonAndrarums IF24:12+7:508:24
24Anton TörnqvistKarlskrona SoK24:17+7:558:25
25Linus BoströmOK Alehof24:48+8:268:36
26Jakob WilhelmssonKarlskrona SoK25:00+8:388:40
27Filip HåkanssonOK Orion25:31+9:098:51
28Melvin NilssonHärlövs IF25:38+9:168:54
29Erik JohanssonOK Alehof26:25+10:039:10
30Emil JägstedtHalmstad OK27:02+10:409:23
31Klas LjungqvistLunds OK27:19+10:579:29
32Fabian ValleriusGamleby OK29:15+12:5310:09
33Jakob MobergOK Löftan33:51+17:2911:45
34Fabian AnderssonRonneby OK36:39+20:1712:43
35Stellan GradinAndrarums IF42:50+26:2814:52
36Johan VinbladLunds OK43:19+26:5715:02
37Alfred ÖstergrenAlvesta SOK43:35+27:1315:07
38Simon ElmRonneby OK43:55+27:3315:14
39Sverre HäggströmAndrarums IF46:30+30:0816:08
40Alfred ErdeliusIF Rigor47:17+30:5516:25
41Emil ViktorssonOK Skogsfalken48:30+32:0816:50
42Jonathan OrrhedeHelsingborgs SOK55:51+39:2919:23
Ivar HelmerssonHässleholms OKej start
Alfred AhltinMalmö OKej start

D14 Kort

2 540 m, 3 startande
PlacNamnOrganisationTidDiffKm-tid R
1Tyra PeterssonHelsingborgs SOK26:3910:29
2Ida Kristine NordvikAsker SK34:51+8:1213:43
3Anja LindRonneby OK58:22+31:4322:58

H14 Kort

2 540 m, 3 startande
PlacNamnOrganisationTidDiffKm-tid R
1Albin EronnLinköpings OK23:119:07
2Gustav NilssonHärlövs IF27:23+4:1210:46
Erik SundelinOK Orionej godkänd

D12

2 540 m, 21 startande
PlacNamnOrganisationTidDiffKm-tid R
1Emmy GranstedtIK Hakarpspojkarna19:347:42
2Linnea RydlundHässleholms OK22:24+2:508:49
3Maja GraadIF Rigor22:25+2:518:49
4Emma ZettervallKarlskrona SoK22:56+3:229:01
5Hanna AlsiöFalköpings AIK OK23:53+4:199:24
6Lisa SwartzOK Orion24:07+4:339:29
7Alice OlvegårdFK Göingarna24:33+4:599:39
8Tuva SelinFK Göingarna24:58+5:249:49
9Emma EmilssonOK Skogsfalken25:51+6:1710:10
10Ina ÅmanOK Vilse 8726:02+6:2810:14
11Matilda CederbergVänersborgs SK26:55+7:2110:35
12Tove ValleriusGamleby OK27:51+8:1710:57
13Tova RangertIK Hakarpspojkarna28:31+8:5711:13
14Ellen TollOK Njudung31:35+12:0112:26
15Sandra WiduchKarlskrona SoK36:10+16:3614:14
16Anna ViktorssonOK Skogsfalken39:32+19:5815:33
17Alva SvenssonFK Åsen40:18+20:4415:51
18Lova ErikssonTrollhättans SOK42:47+23:1316:50
19Maja BäcklundRonneby OK44:24+24:5017:28
20Embla ThorénRonneby OK1:00:19+40:4523:44
Hanna ÖbergGamleby OKej godkänd
Nora LevinFK Åsenej start

H12

2 540 m, 26 startande
PlacNamnOrganisationTidDiffKm-tid R
1Linus VernströmRonneby OK18:047:06
2Victor HanssonOK Löftan18:40+0:367:20
3Tobias JohanssonOK Löftan19:46+1:427:46
4Emil SeldénIF Rigor20:16+2:127:58
5Ewan MusgraveHalden SK20:35+2:318:06
6Svante SelinFK Göingarna22:55+4:519:01
7Casper TuressonHärlövs IF26:25+8:2110:24
8Olle BorkmarHelsingborgs SOK26:44+8:4010:31
9Ludvig EronnLinköpings OK27:45+9:4110:55
10Axel TenghagenHärlövs IF28:10+10:0611:05
11Nils SwartzOK Orion30:34+12:3012:02
12Wilmer SelinFK Göingarna31:13+13:0912:17
13Victor EricssonHelsingborgs SOK32:10+14:0612:39
14Gustav FribergHelsingborgs SOK32:15+14:1112:41
15Gunnar WessbergHärlövs IF33:54+15:5013:20
16Isak LevinFK Åsen36:19+18:1514:17
17Cazper NilssonAndrarums IF36:22+18:1814:19
18Lucas BoströmOK Alehof37:02+18:5814:34
19Oliver HåkanssonOK Orion37:38+19:3414:48
20Erik RexfeltFalkenbergs OK42:19+24:1516:39
21Moltas ÖstergrenAlvesta SOK53:25+35:2121:01
22Elias NilssonAndrarums IF1:06:26+48:2226:09
23Alfred KjellénHelsingborgs SOK1:07:31+49:2726:34
Olle PetersénOK Njudungej godkänd
Axel BrattOK Orionej godkänd
Albert BrohedeOK Tyrutgått
Stepan KhakimovKarlskrona SoKej start
Simon CorneliussonOK Löftanej start

D12 Kort

2 200 m, 1 startande
PlacNamnOrganisationTidDiffKm-tid R
1Amelia SvenssonOK Orion42:0119:05

H12 Kort

2 200 m, 5 startande
PlacNamnOrganisationTidDiffKm-tid R
1Albin JägstedtHalmstad OK25:3011:35
2Jonathan PalmingerMalmö OK26:16+0:4611:56
3Adam AnderssonKarlskrona SoK33:29+7:5915:13
4Hektor HolmHelsingborgs SOK34:56+9:2615:52
Albin HugossonLunds OKej godkänd

D10

2 200 m, 12 startande
PlacNamnOrganisationTidDiffKm-tid R
1Sara LjungqvistLunds OK14:526:45
2Minna PalmIK Hakarpspojkarna15:34+0:427:04
3Lova JohanssonFK Friskus-Varberg17:44+2:528:03
4Frida LindénVäxjö OK18:08+3:168:14
5Filippa BraunVäxjö OK18:27+3:358:23
6Lovisa EliassonFK Friskus-Varberg20:15+5:239:12
7Klara FribergHelsingborgs SOK22:07+7:1510:03
8Emma PerssonHalmstad OK22:26+7:3410:11
9Felicia PerssonHelsingborgs SOK26:36+11:4412:05
10Vide HäggströmAndrarums IF27:19+12:2712:24
11Hanna BäcklundRonneby OK28:21+13:2912:53
12Emma LindénVäxjö OK32:56+18:0414:58
Meja EnvallIK Hakarpspojkarnaej start

H10

2 030 m, 10 startande
PlacNamnOrganisationTidDiffKm-tid R
1Hjalmar AxelssonFK Göingarna13:576:52
2Liam HogedalVänersborgs SK14:31+0:347:09
3Wille VernströmRonneby OK17:28+3:318:36
4Wilhelm KarmetunOK Njudung20:08+6:119:55
5Alfred LeijonHärlövs IF20:37+6:4010:09
6Adam NeroNässjö OK24:00+10:0311:49
7Hugo ThoressonAndrarums IF24:01+10:0411:49
8Filip HanssonOK Löftan26:31+12:3413:03
9Johannes NorrbyOK Södertörn29:19+15:2214:26
10Noah KorallMotala AIF OL31:30+17:3315:31

D35

3 430 m, 5 startande
PlacNamnOrganisationTidDiffKm-tid R
1Emelie SvalinVänersborgs SK27:067:54
2Maria MickelåkerAndrarums IF28:37+1:318:20
3Karin LindqvistRonneby OK32:58+5:529:36
4Susanna CaleklintKarlskrona SoK40:51+13:4511:54
5Helena PerssonCentrum OK51:06+24:0014:53
Katarina LenanderVäxjö OKej start

H35

4 210 m, 7 startande
PlacNamnOrganisationTidDiffKm-tid R
1Ed NashSV Turbine Neubrandenburg23:365:36
2Rasmus OscarOK Pan Århus24:17+0:415:46
3Erik BengtssonFK Åsen27:03+3:276:25
4Ronnie AnderssonFalkenbergs OK30:04+6:287:08
5Johan GustafsonLunds OK37:40+14:048:56
Fredrik NilssonAndrarums IFdiskvalificerad
Stefan MagnussonLunds OKutgått
Thomas NilssonEslövs FKej start
Patrik CorneliussonOK Löftanej start

D40

3 430 m, 23 startande
PlacNamnOrganisationTidDiffKm-tid R
1Mia EronnLinköpings OK25:127:20
2Jenny HåkanssonOK Orion25:44+0:327:30
3Kajsa NiemiEmmaboda Verda OK27:55+2:438:08
4Maria BraunVäxjö OK29:05+3:538:28
5Daniela ZschäckelSV IHW Alex 78 Berlin e.V.29:19+4:078:32
6Sara PalmingerMalmö OK30:37+5:258:55
7Malin LeijonHärlövs IF30:44+5:328:57
8Camilla SelinFK Göingarna31:29+6:179:10
9Kristina JosefssonAnderstorps OK31:33+6:219:11
10Linda LarssonKarlskrona SoK31:55+6:439:18
11Dorthe MunktvedAllerød OK32:03+6:519:20
12Marie NilssonHärlövs IF32:41+7:299:31
13Anne Marie ThommesenBallerup OK33:05+7:539:38
14Ann HyvönenSkattkärrs SOK33:24+8:129:44
15Lotte HenrikssonSimrishamns OK33:36+8:249:47
16Catarina HardenFK Boken36:54+11:4210:45
17Cecilia KarmetunOK Njudung39:05+13:5311:23
18Anna BjärbyFrosta OK45:26+20:1413:14
19Anna KorallMotala AIF OL48:32+23:2014:08
20Mona LindénVäxjö OK53:19+28:0715:32
21Ann-Katrin AlmquistFK Göingarna59:01+33:4917:12
Eva-Lotta JohanssonGotlands Bro OKej godkänd
Maria LangVästerviks OKej godkänd

H40

3 790 m, 24 startande
PlacNamnOrganisationTidDiffKm-tid R
1Jesper HåkanssonFK Göingarna22:435:59
2Bertil EronnLinköpings OK22:53+0:106:02
3Daniel BrohedeOK Tyr23:28+0:456:11
4Christian HåkanssonRonneby OK24:21+1:386:25
5Joakim KarmetunOK Njudung24:49+2:066:32
6Magnus HanssonOK Löftan25:37+2:546:45
7Fredrik PerssonHalmstad OK26:44+4:017:03
8Johan SwartzOK Orion26:58+4:157:06
9Christian EnbergLinköpings OK27:08+4:257:09
10Emil ErdeliusIF Rigor29:11+6:287:42
11Johan AxelssonOK Älme29:31+6:487:47
12Henrik HellborgCentrum OK30:41+7:588:05
13Ola MarkholmSkåneslättens OK31:12+8:298:13
14Magnus EliassonFK Friskus-Varberg31:31+8:488:18
15Johan JensenSkåneslättens OK32:25+9:428:33
16Björn NilssonTumba-Mälarhöjden OK33:27+10:448:49
17Christer ÖbergGamleby OK33:34+10:518:51
18Mattias JägstedtHalmstad OK34:03+11:208:59
19Ola HäggströmAndrarums IF34:05+11:228:59
20Magnus Nilsson-EhrnbornAndrarums IF35:26+12:439:20
21Anders FranzénLidköpings VSK39:56+17:1310:32
22Michael NilssonAndrarums IF43:06+20:2311:22
Nicklas KallerbäckEmmaboda Verda OKej godkänd
Jonny LindénVäxjö OKej godkänd
Magnus ThörnbladRonneby OKej start
Andreas SimonssonHalmstad OKej start

D45

3 130 m, 37 startande
PlacNamnOrganisationTidDiffKm-tid R
1Sarah DunnHalden SK21:176:47
2Lena RegnellVäxjö OK22:08+0:517:04
3Ulrika HermanssonOK Orion22:17+1:007:07
4Louise AxelssonFK Göingarna23:34+2:177:31
5Carina GustafssonOK Gynge24:21+3:047:46
6Carina RydlundHässleholms OK24:28+3:117:49
7Anna LjungqvistLunds OK25:45+4:288:13
8Marina AxelssonMarkbygdens OK26:35+5:188:29
9Marie OlssonÖrkelljunga FK26:40+5:238:31
10Annika EricssonVäxjö OK26:45+5:288:32
11Josefine AlbinssonOK Skogsfalken27:45+6:288:51
12Ingela ThoressonAndrarums IF28:00+6:438:56
13Åsa JosarpFK Friskus-Varberg28:17+7:009:02
14Helena KarlssonNässjö OK28:23+7:069:04
15Åsa EricssonLunds OK29:15+7:589:20
16Anki BlennowFalköpings AIK OK31:07+9:509:56
17Marina JohanssonOK Njudung31:33+10:1610:04
18Anna Nero NordmarkNässjö OK31:43+10:2610:07
19Marie MarkholmSkåneslättens OK32:04+10:4710:14
20Jessica HallrosMotala AIF OL32:08+10:5110:15
21Susanne KarlssonHärlövs IF33:02+11:4510:33
22Linda WesterlundFrosta OK33:10+11:5310:35
23Malin JohanssonFK Friskus-Varberg34:12+12:5510:55
24Helena SvenssonFK Boken34:55+13:3811:09
25Karolina KarlssonNybro OK35:31+14:1411:20
26Helena AnderssonHärlövs IF36:06+14:4911:32
27Malin ÅmanOK Vilse 8736:12+14:5511:33
28Maria TuressonHärlövs IF36:18+15:0111:35
29Malin WeidenSkåneslättens OK37:28+16:1111:58
30Lena TuressonBurseryds IF39:46+18:2912:42
31Suzanne QvistAndrarums IF41:56+20:3913:23
32Ingela AnderssonOK Orion46:38+25:2114:53
33Anke SchmiedebergSV Turbine Neubrandenburg50:42+29:2516:11
34Anna HagströmFalkenbergs OK52:40+31:2316:49
35Linda ThorénRonneby OK54:01+32:4417:15
36Sara ThörnOK Södertörn1:00:02+38:4519:10
Kerstin JensenSkåneslättens OKej godkänd
Anne JohanssonKarlskrona SoKej start
Carina ThynellHärlövs IFej start

H45

3 690 m, 71 startande
PlacNamnOrganisationTidDiffKm-tid R
1Tony LarssonIstrums SK20:355:34
2Magnus LarssonFK Göingarna20:37+0:025:35
3Jan LagerHalmstad OK20:39+0:045:35
4Nils SchmiedebergSV Turbine Neubrandenburg21:39+1:045:52
5Lennart SöderbergIK Hakarpspojkarna22:02+1:275:58
6Tony LarssonOK Skogsfalken22:18+1:436:02
7Patrik RosénVäxjö OK22:45+2:106:09
8Magnus JohanssonOK Löftan22:50+2:156:11
9Anders HåkanssonOK Orion22:52+2:176:11
10Thomas JohannessonRonneby OK23:18+2:436:18
11Matti EnvallIK Hakarpspojkarna23:26+2:516:21
12Thomas JosarpFK Friskus-Varberg23:31+2:566:22
12Anders ArfwedsonFrölunda OL23:31+2:566:22
14Raik ZschäckelSV IHW Alex 78 Berlin e.V.23:49+3:146:27
15Magnus LarssonKarlskrona SoK23:51+3:166:27
16Ulrik EnglundTumba-Mälarhöjden OK24:09+3:346:32
17Håkan JohanssonIK Hakarpspojkarna24:30+3:556:38
18Fabian LjungqvistLunds OK24:41+4:066:41
19Kristian PalmIK Hakarpspojkarna24:56+4:216:45
20Carsten Gemmer HanghøjBallerup OK25:02+4:276:47
21Magnus TenghagenHärlövs IF25:16+4:416:50 Ladda ner rutt i gpx-format
22Håkan AxelssonFK Göingarna26:07+5:327:04
23Anders SelinFK Göingarna26:21+5:467:08
24Bo SvenssonIstrums SK26:37+6:027:12
25Johan BökmanHelsingborgs SOK26:46+6:117:15
26Fredrik HugossonLunds OK26:48+6:137:15
27Gert WildheimFK Friskus-Varberg28:13+7:387:38
28Nils HelmerssonHässleholms OK28:18+7:437:40
29Peter BraunVäxjö OK28:21+7:467:40
30Per-Anders AxelssonMarkbygdens OK28:26+7:517:42
31Mats GranstedtIK Hakarpspojkarna28:39+8:047:45
32Filip SjöforsOK Älme28:42+8:077:46
33Mikael AnderssonHagaby GOIF29:13+8:387:55
34Fredrik PerssonHelsingborgs SOK29:15+8:407:55
35Jonas K JohanssonOK Skogsfalken29:49+9:148:04
36Johan AnderssonOK Skogsfalken29:53+9:188:05
37Ulf ÅmanOK Vilse 8730:21+9:468:13
38Jonas PerssonTorsås OK30:23+9:488:14
39Jonas HöstHjärnarps OL30:51+10:168:21
40Ole MeldgaardBallerup OK30:53+10:188:22
41Urban SörqvistMarkbygdens OK31:33+10:588:33
42Dennis TollOK Njudung31:49+11:148:37
43Anders EricssonLunds OK32:26+11:518:47
44Tony GustavsenIstrums SK33:33+12:589:05
45Krister KarlssonIstrums SK34:02+13:279:13
46Björn ZettervallKarlskrona SoK34:05+13:309:14
47Jonas BergenfurSkattkärrs SOK34:42+14:079:24
48Magnus GraadRonneby OK35:09+14:349:31
49Edo DrenthHelsingborgs SOK35:40+15:059:39
50Thomas LåstbomHärlövs IF35:55+15:209:44
51Lars MunktvedAllerød OK35:56+15:219:44
52Mikael SöderströmOK Stigen35:58+15:239:44
53Fredrik UllmanSkåneslättens OK36:12+15:379:48
54Peter DombyOK Stigen36:43+16:089:57
55Håkan ErikssonHästveda OK36:45+16:109:57
56Magnus TrofastBredaryds SOK36:49+16:149:58
57Stephan ÖstergrenAlvesta SOK36:58+16:2310:01
58Olle SjöforsOK Älme37:11+16:3610:04
59Mikael GustafssonOK Gynge37:43+17:0810:13
60Johan LindeblomIK Omega38:19+17:4410:23
61Pierre DanielssonOK Skogsfalken38:25+17:5010:24
62Johan HanssonOK Löftan40:54+20:1911:05
63Björn RexfeltFalkenbergs OK41:05+20:3011:08
64Anders SundelinOK Orion42:00+21:2511:22
65Lars DahlHärlövs IF44:00+23:2511:55
66Lars ThorénRonneby OK45:46+25:1112:24
67Anders GustafssonFK Friskus-Varberg45:56+25:2112:26
68Jonas HultinOK Löftan52:38+32:0314:15
69Ola NilssonAlvesta SOK55:15+34:4014:58
Magnus EricssonVäxjö OKej godkänd
Fredrik JönssonMotala AIF OLej godkänd
Magnus LarsenFK Bokenej start
Peter LiljedahlOK Skogsfalkenej start
Per JohanssonMotala AIF OLej start

D50

2 960 m, 32 startande
PlacNamnOrganisationTidDiffKm-tid R
1Ingrid JohanssonLaholms IF OK24:478:22
2Annika EngelHässleholms OK25:49+1:028:43
3Lena SwartzOK Orion26:18+1:318:53
4Anette BernhedSävedalens AIK27:20+2:339:14
5Annette BondeBallerup OK27:32+2:459:18
6Lena SöderlundTormestorps IF27:33+2:469:18
7Britt-Marie StenssonHelsingborgs SOK28:20+3:339:34
8Christina SternerOK Njudung28:24+3:379:35
9Kristina SpångbergLunds OK28:38+3:519:40
10Annika SvenssonSolna OK28:39+3:529:40
11Christina HalvarssonOK Kroppefjäll28:50+4:039:44
12Suzy LarssonOK Skogshjortarna29:09+4:229:50
13Kajsa HolmqvistHagaby GOIF29:10+4:239:51
14Marita FilipssonMarkaryds FK29:14+4:279:52
15Gitte EngströmLinköpings OK29:40+4:5310:01
16Eva PetterssonKarlskrona SoK30:08+5:2110:10
17Ingela AnderssonLunds OK30:26+5:3910:16
18Agneta Hallberg HanssonJönköpings OK30:38+5:5110:20
19Christel OlssonFK Åsen31:20+6:3310:35
20Ann-Brith StrömbergOK Skogshjortarna32:05+7:1810:50
21Carina AnderssonFK Friskus-Varberg32:08+7:2110:51
22Gunnel SvenssonOK Tranan32:12+7:2510:52
23Åsa AlsiöFalköpings AIK OK32:15+7:2810:53
24Lena CarlssonSävedalens AIK33:20+8:3311:15
25Wiveka ErnstssonFK Göingarna34:24+9:3711:37
26Barbro KärvhagOK Skogsfalken39:26+14:3913:19
27Susanne DombyOK Stigen40:50+16:0313:47
28Ing-Britt SwedenborgLunds OK42:28+17:4114:20
29Frida MannfolkUlricehamns OK46:14+21:2715:37
30Katarina SundelinOK Orion49:20+24:3316:40
31Lena PeterssonOK Alehof50:09+25:2216:56
32Carina GöranssonYstads OK53:09+28:2217:57
Annika JosefssonKarlskrona SoKej start
Gunilla GustafssonOK Orionej start
Maria LenningSkåneslättens OKej start

H50

3 530 m, 45 startande
PlacNamnOrganisationTidDiffKm-tid R
1Henrik MarkvardsenOK Pan Århus18:485:19
2Tim Falck WeberTisvilde Hegn OK21:12+2:246:00
3Henrik LarssonFK Göingarna21:30+2:426:05
4Sven LundgrenVäxjö OK21:35+2:476:06
5Jon MusgraveHalden SK22:01+3:136:14
6Lars SvantessonHjärnarps OL22:58+4:106:30
7Joachim FribergFalköpings AIK OK23:08+4:206:33
8Klaus KrischanEnnstal23:14+4:266:34
9Andreas GroteOLC SKOG Fribourg23:21+4:336:36
9Peter CederbergVänersborgs SK23:21+4:336:36
11Bo HallbergFalköpings AIK OK23:51+5:036:45
12Anders PetterssonKarlskrona SoK24:15+5:276:52
13John E ErikssonVäxjö OK24:26+5:386:55
14Jonas BornetunSkillingaryds FK24:57+6:097:04
15Ulf JohanssonKarlskrona SoK25:05+6:177:06
16Per KällvikÅmåls OK25:48+7:007:18
17Magnus PorleVäxjö OK25:59+7:117:21
18Bengt OlssonEslövs FK26:15+7:277:26
19Phil ConwayGuildford Orienteers26:29+7:417:30
20Kjell EinarssonOK Skogshjortarna26:45+7:577:34
21Stefan EngströmLinköpings OK27:14+8:267:42
22Torben UtzonOK Pan Århus27:18+8:307:44
23Håkan LindbergOK Djerf29:08+10:208:15
24Erland PeterssonHelsingborgs SOK29:16+10:288:17
25Sten Skytte KirkegaardTisvilde Hegn OK29:18+10:308:18
26Steen StausholmTisvilde Hegn OK29:41+10:538:24
27Jens BehrendTisvilde Hegn OK30:08+11:208:32
28Stefan OlofssonOK Gisle30:28+11:408:37
29Tomas NilssonHässleholms OK31:24+12:368:53
30Ulf LinderfalkSkåneslättens OK31:38+12:508:57
31Mikael WahlbomOK Orion32:31+13:439:12
32Jan TuressonBurseryds IF32:42+13:549:15
33Per-Olof ClaéssonTenhults SOK32:49+14:019:17
34Jan GradinAndrarums IF35:57+17:0910:11
35Peter PukeYstads OK36:50+18:0210:26 Ladda ner rutt i gpx-format
36Stefan DahlHelsingborgs SOK37:39+18:5110:39
37Anders PetterssonVästerviks OK37:54+19:0610:44
38Håkan SvahnOK Ravinen38:05+19:1710:47
39Stefan KarlssonFalköpings AIK OK42:36+23:4812:04
40Hans-Olof PerssonOK Alehof43:06+24:1812:12
41Kjell SvenssonOK Älme49:31+30:4314:01
42Mats SjöbergFrosta OK49:44+30:5614:05
43Mats ToftnerOK Kompassen58:26+39:3816:33
Jan SvenssonOK Orionej godkänd
Mårten WikströmHalmstad OKutgått
Staffan AhltinMalmö OKej start
Olof BarrSkåneslättens OKej start
Ulrik OlssonBrattås CKej start

D55

2 940 m, 30 startande
PlacNamnOrganisationTidDiffKm-tid R
1Ann-Christin Nero ForsmanRonneby OK22:567:48
2Jane JohanssonIstrums SK23:48+0:528:05
3Ann NilssonMarkaryds FK25:26+2:308:39
4Christina SegerslättSkåneslättens OK25:50+2:548:47
5Kristina JohanssonKalmar OK26:20+3:248:57
6Agneta ErforsOK Torfinn26:39+3:439:03
7Kati NémethStigmännen Karlshamns OK27:03+4:079:12
8Britta SahlinVänersborgs SK27:21+4:259:18
9Christina OlssonSkåneslättens OK27:48+4:529:27
10Christina BirathStenungsunds OK28:06+5:109:33
11Annette Falck LarssonVänersborgs SK28:55+5:599:50
12Lena OlssonSkåneslättens OK28:58+6:029:51
13Lollo NybergOK Kontinent29:25+6:2910:00
14Lena KarlssonHalmstad OK30:17+7:2110:18
15Britt ThörnOK Vilse 8731:14+8:1810:37
16Lena LarssonSala OK32:29+9:3311:02
17Ingrid KensbyOK Tyr33:20+10:2411:20
18Karin AnderssonSkåneslättens OK34:49+11:5311:50
19Helle Mejer FrederiksenBallerup OK36:08+13:1212:17
20Ann Warma LaasOK Skogshjortarna39:27+16:3113:25
21Yvonne AnderssonHässleholms OK40:05+17:0913:38
22Monika NilssonOK Alehof40:12+17:1613:40
23Alice BrødsgaardBallerup OK41:53+18:5714:14
24Tina HagårdRävetofta OK45:51+22:5515:35
25Katarina ÖstlingOK Skogshjortarna46:16+23:2015:44
26Eva WareniusAvesta OK46:36+23:4015:51
27Ann ÖhlinStigmännen Karlshamns OK49:23+26:2716:47
28Hanne FrostBallerup OK55:02+32:0618:43
Lotta Valentin LarssonGustavsbergs OKej godkänd
Lisa LarssonSjövalla FKutgått
Christina MalmqvistFalkenbergs OKej start
Marianne ThorssonIK Trenne Ullaredej start

H55

3 350 m, 41 startande
PlacNamnOrganisationTidDiffKm-tid R
1Lars SöderlundTormestorps IF20:005:58
2Mats BrorssonTockarps IK20:51+0:516:13
3Jan GranstedtHalden SK20:55+0:556:14
4Sten GustafssonEds SK21:11+1:116:19
5Gunnar LangsSkarpnäcks OL21:49+1:496:30
6Jan HanssonStenungsunds OK21:58+1:586:33
7Göran MånssonKarlskrona SoK22:36+2:366:44
8Andres LaasOK Skogshjortarna23:02+3:026:52
9Bengt SchwartzOK Kolmården23:13+3:136:55 Ladda ner rutt i gpx-format
10Krister GumaeliusWaxholms OK23:29+3:297:00
11Anders BjörklundSävedalens AIK23:52+3:527:07
12Thommy BergmanStigmännen Karlshamns OK24:56+4:567:26
13Peter ValterssonAnderstorps OK25:17+5:177:32
14Torbjörn LöfvingMullsjö SOK25:42+5:427:40
15Ulf JungstrandOK Skogsfalken26:08+6:087:48
16Per Arne ArnesenKolbotn & Skimt OL26:13+6:137:49
17Ingemar MånssonRonneby OK26:18+6:187:51
18Jan KarlssonVäxjö OK26:25+6:257:53
19Sten SegerslättSkåneslättens OK26:38+6:387:57
20Nils-Olof LarssonVänersborgs SK26:53+6:538:01
21Håkan SanderiLidköpings VSK27:20+7:208:09
22Anker MøllerSilkeborg OK27:59+7:598:21
23Torbjörn HalvarssonFjärås AIK28:12+8:128:25
24Christer JohanssonOK Ravinen28:16+8:168:26
25Gregers JørgensenBallerup OK28:35+8:358:31
26Sverker ErikssonOK Gynge29:04+9:048:40
27Ingmar OlssonOK Vilse 8730:20+10:209:03
28Torben SchorlemmerBallerup OK31:01+11:019:15
29Christer MannfolkUlricehamns OK31:20+11:209:21
30Bruno StubPI-København31:47+11:479:29
31Benjamin ViebkeMalmö OK33:13+13:139:54
32Arne KlintbergEksjö SOK33:36+13:3610:01
33Alf WestessonOK Kontinent33:45+13:4510:04
34Niels AabyeBallerup OK34:55+14:5510:25
35Leif KarlssonOK Kontinent35:00+15:0010:26
36Lars StrömbergOK Skogshjortarna35:47+15:4710:40
37Lennart StenssonHelsingborgs SOK36:30+16:3010:53
38Michael AnderssonGöteborg-Majorna OK37:49+17:4911:17
39Lars ErikssonMarkbygdens OK43:15+23:1512:54
40Kyrre ThalbergLunds OK43:19+23:1912:55
Mats KensbyOK Tyrej godkänd

D60

2 500 m, 19 startande
PlacNamnOrganisationTidDiffKm-tid R
1Susanne BerglundSävedalens AIK22:198:55
2Pia SvenssonFalköpings AIK OK24:26+2:079:46
3Eva TykessonRävetofta OK24:29+2:109:47
4Ingrid LarssonFK Göingarna25:29+3:1010:11
5Ing-Marie HjertFalköpings AIK OK27:36+5:1711:02
6Gerd HagströmGOIF Tjalve30:16+7:5712:06
7Elise JohanssonFalköpings AIK OK30:33+8:1412:13
8Gunilla HogedalVänersborgs SK30:57+8:3812:22
9Mona EnforsTockarps IK31:16+8:5712:30
10Kerstin HjalmarssonEmmaboda Verda OK32:20+10:0112:56
11Monica IvarssonOK Skogshjortarna32:42+10:2313:04
12Gunnel GillenäsKristinehamns OK33:03+10:4413:13
13Britt GunnarssonKristinehamns OK33:48+11:2913:31
14Elisabeth BybergerSolna OK34:12+11:5313:40
15Berit IvarssonOK Skogshjortarna36:36+14:1714:38
16Kristin JohanssonKarlskrona SoK37:24+15:0514:57
17Siv LarssonVäxjö AIS38:13+15:5415:17
18Helle RagnarssonOK Kompassen1:16:12+53:5330:28
Arja IngvarssonOK Vilse 87ej godkänd

H60

3 500 m, 39 startande
PlacNamnOrganisationTidDiffKm-tid R
1Ulf PalmérUlricehamns OK21:456:12
2Kent GranqvistVästerviks OK24:03+2:186:52
3Bengt LarssonFK Göingarna24:16+2:316:56
4Pierre KarlssonOK Alehof25:23+3:387:15
5Ken RagnarssonOK Kompassen25:39+3:547:19
6Roland WareniusAvesta OK26:13+4:287:29
7Björn KarlssonHalmstad OK27:31+5:467:51
8Lars ForsstedtSöders SOL28:06+6:218:01
9Matz LarssonGustavsbergs OK28:18+6:338:05
10Stefan CarlssonSOK Viljan29:12+7:278:20
11Mats IngvarssonOK Vilse 8729:13+7:288:20
11Tomas KarlssonOK Skogshjortarna29:13+7:288:20
13Roger ThörnOK Vilse 8729:21+7:368:23
14Thomas HjertFalköpings AIK OK30:29+8:448:42
15Yngve ErnstssonFK Göingarna30:34+8:498:44
16Stefan GunnarssonKristinehamns OK31:04+9:198:52
17Conny SahlinVänersborgs SK31:12+9:278:54
18Bo SalomonsonKalmar OK31:41+9:569:03
19Johan BerglundSävedalens AIK32:23+10:389:15
20Bo AnderssonFalköpings AIK OK33:15+11:309:30
21Bernt AnderssonIF Rigor33:16+11:319:30
22Tommy RoosFalköpings AIK OK34:38+12:539:53
23Stellan MartinssonOK Tyringe35:03+13:1810:00
24Roy FranssonÄrla IF36:27+14:4210:24
25Lars StrandSkåneslättens OK36:40+14:5510:28
26Kjell NeroNässjö OK37:05+15:2010:35
27Olle EnforsTockarps IK39:00+17:1511:08
28Per SvenssonRonneby OK40:37+18:5211:36
29Håkan AnderssonMarkbygdens OK44:39+22:5412:45
30Peter NørgaardBallerup OK45:19+23:3412:56
31Lars LarssonSjövalla FK46:21+24:3613:14
32Bernhard GrenaboHjobygdens OK47:26+25:4113:33
33Kent IvarssonOK Skogshjortarna48:03+26:1813:43
34Bengt HanssonSäterbygdens OK1:01:58+40:1317:42
35Thomas DagsbergOK Orion1:03:13+41:2818:03
Kalle LindqvistVäxjö OKej godkänd
Jan-Ola KarlssonOK Njudungej godkänd
Roland DahlmanMalmö OKej godkänd
Torgny OttossonOK Torfinnutgått
Richard BengtssonLunds OKej start

D65

2 500 m, 23 startande
PlacNamnOrganisationTidDiffKm-tid R
1Lena GranefeltOK Tyr25:5010:20
2Inger GlansOK Torfinn26:36+0:4610:38
3Gunnel MånssonOK Vilse 8726:38+0:4810:39
4Lena SöderbergOK Skogsfalken26:59+1:0910:47
5Bigge BengtssonStigmännen Karlshamns OK27:25+1:3510:58
6Karin PerssonOK Tyringe27:29+1:3910:59
7Lisbeth DamsgaardHjärnarps OL30:05+4:1512:02
8Åsa StåhlHjärnarps OL30:20+4:3012:08
9Eva BlomströmIdrottsklubben Stern30:35+4:4512:14
10Ewa NordlundLänna IF31:13+5:2312:29
11Ulla-Britt OrdasiKungälvs OK31:28+5:3812:35
12Margareta SjöbergLunds OK32:07+6:1712:50
13Gun-Britt FranssonEmmaboda Verda OK32:55+7:0513:10
14Margareta HaraldssonGustavsbergs OK33:25+7:3513:22
15Monica PåhlstorpEmmaboda Verda OK35:04+9:1414:01
16Lisbeth OlssonKungälvs OK39:49+13:5915:55
17Ingrid SalomonssonSkåneslättens OK40:00+14:1016:00
18Maj-Britt ByströmRävetofta OK41:30+15:4016:36
19Karin LarssonOK Kompassen46:33+20:4318:37
20Barbro NilssonAndrarums IF48:19+22:2919:19
21Sonja HammarOK Kompassen48:56+23:0619:34
22Kristina JohanssonVänersborgs SK50:01+24:1120:00
23Margareta HeldFK Åsen1:04:30+38:4025:48
Margareta SvenssonOK Vilse 87ej start
Stina KorallMotala AIF OLej start
Kristin LindbergLunds OKej start
Lisbeth KarlssonVaggeryds SOKej start

H65

3 000 m, 45 startande
PlacNamnOrganisationTidDiffKm-tid R
1Carl-Henry AnderssonOK Orinto22:017:20
2Göran LarssonSala OK22:36+0:357:32
3Lars HogedalVänersborgs SK23:14+1:137:44
4Agne BengtssonOK Kompassen23:47+1:467:55
4Jan ÅsbergHäverödals SK23:47+1:467:55
6Sten BlomströmIdrottsklubben Stern23:54+1:537:58
7Bertil KarlssonHjobygdens OK24:27+2:268:09
8Stig JohanssonFalköpings AIK OK24:40+2:398:13
9Ronny HjalmarssonEmmaboda Verda OK24:50+2:498:16
10Per-Erik WåhlbergOK Linné25:23+3:228:27
11Ronald Mc GrailHjärnarps OL25:41+3:408:33
12Torbjörn WikströmOK Orinto26:47+4:468:55
13Kenth SundgrenSkåneslättens OK27:38+5:379:12
14Hans M CarlssonIFK Göteborg27:40+5:399:13
15Göran JohnssonSkåneslättens OK28:55+6:549:38
16Johnny GustafssonGamleby OK29:21+7:209:47
17Ulf KjellinOK Hedströmmen29:43+7:429:54
18Magnus HaraldssonGustavsbergs OK29:52+7:519:57
19Lennart AnderssonOK Orion30:37+8:3610:12
20Kent R NilssonAndrarums IF31:25+9:2410:28
21Gunnar EnbergMålilla OK31:54+9:5310:38
22Lars-Åke SjökvistVärend GN OL32:02+10:0110:40
23Jörgen FranssonEmmaboda Verda OK32:04+10:0310:41
24Bengt StåhlHjärnarps OL32:25+10:2410:48
25Sven-Olof LarssonVäxjö AIS32:34+10:3310:51
26Tommy OlaussonSOK Aneby32:45+10:4410:55
27Bengt HanssonAndrarums IF34:20+12:1911:26
28Christer GillenäsKristinehamns OK34:55+12:5411:38
29Christer NordströmOK Älvsjö-Örby35:12+13:1111:44
30Leif MalmMarkaryds FK35:16+13:1511:45
31Lars PerssonOK Kompassen35:30+13:2911:50
32Anders WidénOLG Säuliamt35:42+13:4111:54
33Christer JohanssonOK Motala36:17+14:1612:05
34Håkan NilssonMalmö OK36:33+14:3212:11
35Anders HedinMotala AIF OL36:41+14:4012:13
36Peter HagströmGOIF Tjalve36:45+14:4412:15
37Dag Lewis-JonssonHelsingborgs SOK38:58+16:5712:59
38Nils-Erik BondessonFrosta OK39:39+17:3813:13
39Roger BergvikVäxjö OK41:44+19:4313:54
40Thomas JohanssonStigmännen Karlshamns OK42:25+20:2414:08
41Bo TuressonOK Bävern43:37+21:3614:32
42Kaare HanssonMalmö OK44:01+22:0014:40
43Tommy HeldFK Åsen45:19+23:1815:06
Lars-Gunnar BengtssonStigmännen Karlshamns OKej godkänd
Göran LarssonOK Kompassenutgått
Sölve AnderssonOK Stigenej start
Gert OlssonSkåneslättens OKej start
Mats HåkanssonMalmö OKej start

D70

2 500 m, 29 startande
PlacNamnOrganisationTidDiffKm-tid R
1Inge JørgensenOK Roskilde24:389:51
2Birgitta OlssonRonneby OK25:23+0:4510:09
3Ulla LindheIdrottsklubben Stern27:16+2:3810:54
4Birgitta StenströmVänersborgs SK28:42+4:0411:28
5Ann-Charlotte JensenHässleholms OK29:23+4:4511:45
6Britt Forsell PirozziSkåneslättens OK29:24+4:4611:45
7Helen AndertoftMarkaryds FK29:43+5:0511:53
8Gullevi SvenssonRonneby OK29:53+5:1511:57
9Britt RangertIK Ymer30:48+6:1012:19
10Ann-Britt BjörkmanKungälvs OK34:03+9:2513:37
11Eva HöijeOK Ravinen35:06+10:2814:02
12Margareta LarssonOK Njudung36:09+11:3114:27
13Gull SvenssonTockarps IK36:27+11:4914:34
14Karin BengtssonOK Kompassen37:31+12:5315:00
15Britten PerssonFinspångs SOK37:39+13:0115:03
16Torill SvendsenFrosta OK37:57+13:1915:10
17Kerstin ErnvidUlricehamns OK38:29+13:5115:23
18Barbro AnderssonOK Skogshjortarna40:15+15:3716:06
19Monica LarssonOK Tranan40:22+15:4416:08
20Lilian SamuelssonKungälvs OK40:37+15:5916:14
21Kerstin BengtssonMotala AIF OL42:01+17:2316:48
22Brita DahlbergHässleholms OK42:45+18:0717:06
23Ulla LingJönköpings OK44:19+19:4117:43
24Marianne CarlssonSkåneslättens OK45:10+20:3218:04
25Ros-Mari KarlssonNybro OK45:29+20:5118:11
26Ulla BergqvistStigmännen Karlshamns OK46:13+21:3518:29
27Astrid JohannessonHelsingborgs SOK47:46+23:0819:06
28Ylva HäggströmIF Rigor51:35+26:5720:38
29Ulla NilssonSOK Viljan1:05:37+40:5926:14

H70

2 900 m, 43 startande
PlacNamnOrganisationTidDiffKm-tid R
1Anders GärderudIFK Lidingös SOK21:297:24
2Tommy OlssonKarlskrona SoK22:40+1:117:48
3Göran AnderssonStigmännen Karlshamns OK23:03+1:347:56
4Leif NordlundLänna IF23:15+1:468:01
5Bengt BergmanLunds OK23:45+2:168:11
6Kalle JohanssonOK Skogshjortarna24:11+2:428:20
7Lars GranefeltOK Tyr24:33+3:048:27
8Dag LorénOK Frisene24:42+3:138:31
9Åke EckerbomIFK Sävsjö25:57+4:288:56
9Ingemar AnderssonOK Orion25:57+4:288:56
11Lennart AlmströmIdrottsklubben Stern26:32+5:039:08
12Morgan LjungVaggeryds SOK26:41+5:129:12
13Lennart HöijeOK Ravinen27:17+5:489:24
14Göran BengtssonTockarps IK27:29+6:009:28
15Per-Arne JohanssonVänersborgs SK27:38+6:099:31
16Leif LindströmNybro OK27:49+6:209:35
17Roy OvessonHelsingborgs SOK27:52+6:239:36
18Sven Erik SjöholmMullsjö SOK28:14+6:459:44
19Roland NilssonSOK Viljan28:17+6:489:45
20Ingvar PerssonFK Åsen28:34+7:059:51
21Ronny AnderssonOK Skogshjortarna28:46+7:179:55
22Bo OlofssonHästveda OK29:20+7:5110:06
23Ole SvendsenOK Roskilde29:21+7:5210:07
24Henrik HvoslefIdrottsklubben Stern29:24+7:5510:08
25Kjell MånssonKarlskrona SoK30:17+8:4810:26
26Jerry MartinssonOK Motala30:27+8:5810:30
27Jan-Olof WåhlbergIBM-Klubben31:09+9:4010:44
28Anders BerglundOK Skogshjortarna31:44+10:1510:56
29Kjell LindauOK Kompassen32:43+11:1411:16
30Steffen HäggströmIF Rigor32:49+11:2011:18
31Gösta LindqvistOK Löftan32:50+11:2111:19
32Gerth SällströmLessebo OK33:15+11:4611:27
33Stellan AhnströmForserums SoK33:39+12:1011:36
34Bertil OttossonFK Göingarna34:20+12:5111:50
35Erling LarssonHässleholms OK38:23+16:5413:14
36Roland NilssonFalköpings AIK OK38:59+17:3013:26
37Christer WestbergIFK Göteborg49:39+28:1017:07
38Christer LjungquistLunds OK51:19+29:5017:41
39Göran RubendahlOK Skogshjortarna59:09+37:4020:23
40Christer SjöforsOK Älme1:20:57+59:2827:54
Jan BojlingSolna OKej godkänd
Christer GrönbladHärlövs IFutgått
Björn NordströmHässleholms OKutgått
Tom LindbergLunds OKej start
Sven-Erik ForsellSkåneslättens OKej start

D75

2 200 m, 7 startande
PlacNamnOrganisationTidDiffKm-tid R
1Solveig DillmanOK Älvsjö-Örby29:0513:13
2Inga-Lill WikingssonStigmännen Karlshamns OK29:21+0:1613:20
3Ann-Marie BirgerssonForserums SoK31:02+1:5714:06
4Elsa SvenssonOK Vilse 8732:16+3:1114:40
5Karin LexellOK Torfinn32:34+3:2914:48
6Barbro VallinKungälvs OK36:34+7:2916:37
Barbro HugossonLunds OKutgått
Lisbeth JohanssonOK Skogshjortarnaej start

H75

2 800 m, 25 startande
PlacNamnOrganisationTidDiffKm-tid R
1Roland KarlssonRonneby OK26:359:29
2Nils-Eric EricsonFK Åsen29:18+2:4310:27
3Ingemar SvenssonLunds OK29:31+2:5610:32
4Gunnar NilssonHärlövs IF29:51+3:1610:39
5Arne GustafssonMalmö OK30:57+4:2211:03
6Ernie BroströmHalmstad OK31:28+4:5311:14
7Bengt BergqvistStigmännen Karlshamns OK32:44+6:0911:41
8Erland LingJönköpings OK33:04+6:2911:48
9Hubert HugossonOK Gynge36:05+9:3012:53
10Göran FolkessonRonneby OK37:13+10:3813:17
11Nils-Åke NilssonHärlövs IF37:37+11:0213:26
12Bo SvenssonTockarps IK39:11+12:3613:59
13Staffan GanteliusVallentuna-Össeby OL39:43+13:0814:11
14Leif SjögrenOK Orion41:48+15:1314:55
15Göran ThourVärend GN OL45:04+18:2916:05
16Gert OlssonMalmö OK46:08+19:3316:28
17Bertil ErikssonMalmö OK47:30+20:5516:57
18Harald WibyeOK Moss47:36+21:0117:00
19Ivan ErnvidUlricehamns OK48:06+21:3117:10
20Mats BirgerssonForserums SoK48:39+22:0417:22
21Kenneth LindborgHässleholms OK49:19+22:4417:36
22Lars-Åke LarssonOK Tranan52:05+25:3018:36
23Bengt HanssonOK Löftan1:18:13+51:3827:56
Allan HammarOK Kompassenej godkänd
Torgny JonssonVäxjö AISutgått
Sven LevinAndrarums IFej start
Lars JohanssonOK Skogshjortarnaej start

D80

1 900 m, 2 startande
PlacNamnOrganisationTidDiffKm-tid R
1Lisa HedströmGöteborg-Majorna OK36:0518:59
2Brigitte SchmiedebergSV Turbine Neubrandenburg40:20+4:1521:13

H80

2 500 m, 9 startande
PlacNamnOrganisationTidDiffKm-tid R
1Bo BengtssonHässleholms OK31:0812:27
2Torsten HannrupOK Kompassen32:23+1:1512:57
3Klas TykessonSkåneslättens OK35:10+4:0214:04
4Owe ÅkessonHärlövs IF35:21+4:1314:08
5Lennart StenbergOK Älvsjö-Örby38:07+6:5915:14
6Anders AdlerLinköpings AIK43:34+12:2617:25
7Jan-Eric NelkingFK Åsen45:51+14:4318:20
8Inge ÅkessonStigmännen Karlshamns OK47:13+16:0518:53
Ingvar PeterssonHässleholms OKej godkänd
Sven PerssonAndrarums IFej start

H85

2 500 m, 7 startande
PlacNamnOrganisationTidDiffKm-tid R
1Bertil JohanssonMarkbygdens OK31:2812:35
2Kjell-Arne PetterssonHärlövs IF37:39+6:1115:03
3Leo ÅkessonHärlövs IF42:37+11:0917:02
4Rune IsakssonHelsingborgs SOK54:46+23:1821:54
5Curt HjalmarssonHässleholms OK56:58+25:3022:47
Sven AnderssonOK Stigenej godkänd
Nils-Åke NilssonAndrarums IFej godkänd
Bertil JohanssonSkåneslättens OKej start
Sven SvenssonKarlskrona SoKej start

Inskolning

1 740 m, 4 startande
PlacNamnOrganisationTidDiffKm-tid R
Alvin HogedalOK Alehoffullföljt
Olle HåkanssonRonneby OKfullföljt
Elsa KorallMotala AIF OLfullföljt
Sophie WiduchKarlskrona SoKfullföljt
Isak TörnqvistKarlskrona SoKej start

U1

1 980 m, 14 startande
PlacNamnOrganisationTidDiffKm-tid R
1Olof HertinVästerviks OK13:426:55
2Gabriel HogedalVänersborgs SK15:21+1:397:45
3Albin EmilssonOK Skogsfalken15:28+1:467:48
4Ruben RentnerVäxjö OK15:31+1:497:50
5Alma KjellénHelsingborgs SOK17:19+3:378:44
6Erik OlssonFrosta OK17:22+3:408:46
7Smilla RentnerVäxjö OK18:21+4:399:16
8Hedda ÅbergEslövs FK19:15+5:339:43
9Edith BergenfurSkattkärrs IF23:05+9:2311:39
10Ida PalmingerMalmö OK27:36+13:5413:56
11Ellen UllmanSkåneslättens OK33:00+19:1816:40
12Sonia KurashovaFK Åsen33:07+19:2516:43
13Viggo AhlmAndrarums IF43:49+30:0722:07
Smilla ThomassonFK Göingarnaej godkänd

U2

2 500 m, 20 startande
PlacNamnOrganisationTidDiffKm-tid R
1Emil RingRonneby OK17:437:05
2Edvin SahlinOK Löftan21:37+3:548:38
3Matilda SöderbergOK Skogsfalken22:26+4:438:58
4Oskar MobergOK Löftan22:58+5:159:11
5Anton LindströmTorsås OK23:26+5:439:22
6Alvin LundgrenVäxjö OK24:06+6:239:38
7Tor EmanuelssonHelsingborgs SOK24:07+6:249:38
8Elliot JägstedtHalmstad OK25:21+7:3810:08
9Valdemar PukeYstads OK27:54+10:1111:09
10Linnéa BjärbyFrosta OK28:04+10:2111:13
11Alfred OlssonLunds OK28:41+10:5811:28
12Meliza NilssonAndrarums IF28:58+11:1511:35
13Erik KinnbladOK Älme29:00+11:1711:36
14Gustav NilssonAlvesta SOK31:29+13:4612:35
15Ossian ÖstergrenAlvesta SOK32:34+14:5113:01
16Tove RosbergVäxjö OK33:49+16:0613:31
17Kurt SjöbergHelsingborgs SOK34:38+16:5513:51
18Alexander BjärbyFrosta OK35:04+17:2114:01
19Kevin StåhlOK Älme41:18+23:3516:31
20Isak HolmqvistHelsingborgs SOK47:57+30:1419:10

Öppen motion 1

2 500 m, 6 startande
PlacNamnOrganisationTidDiffKm-tid R
1Lottis BrohedeOK Tyr23:259:22
2Kristina PerssonHalmstad OK24:08+0:439:39
3Marianne Granum HelsvigKonnerud IL25:33+2:0810:13
4Charlotte ViktorssonOK Skogsfalken26:25+3:0010:34
5Margareta WikströmVäxjö AIS32:38+9:1313:03
6Ellinor BornetunSkillingaryds FK43:01+19:3617:12

Öppen motion 3

2 850 m, 33 startande
PlacNamnOrganisationTidDiffKm-tid R
1Mat KärvhagOK Skogsfalken23:158:09
2Klas BogsjöHelsingborgs SOK26:32+3:179:18
3Emma LarssonKarlskrona SoK28:03+4:489:50
4Madelene HanssonOK Löftan28:54+5:3910:08
5Carina AronssonHässleholms OK28:56+5:4110:09
6Gunnel HenryssonKarlskrona SoK30:18+7:0310:37
7Ida OlssonTorsås OK32:09+8:5411:16
8Lena EliassonFK Friskus-Varberg32:24+9:0911:22
9Ester EricssonFK Friskus-Varberg33:17+10:0211:40
10Anders ElvlandHalmstad OK33:24+10:0911:43
11Cecilia EricssonFK Friskus-Varberg33:33+10:1811:46
12Annette JohanssonIF Rigor34:24+11:0912:04
13Mikael WiduchKarlskrona SoK35:08+11:5312:19
14Sven-Åke AndertoftMarkaryds FK35:29+12:1412:27
15Carina JönssonFK Åsen39:07+15:5213:43
16Caroline StåhlHjärnarps OL39:27+16:1213:50
17Robin WallbergFrosta OK39:55+16:4014:00 Ladda ner rutt i gpx-format
18Emma WallbergFrosta OK39:58+16:4314:01
19Eric TenlandStigmännen Karlshamns OK40:30+17:1514:12
20Robin WibergHässleholms OK40:34+17:1914:14
21Henrike NashSV Parkentin41:04+17:4914:24
22Felix ThomassonFK Göingarna42:45+19:3015:00
23Gustaf GusedFalkenbergs OK43:57+20:4215:25
24MariAnne MånssonRonneby OK46:27+23:1216:17
25Amanda WibergHässleholms OK49:06+25:5117:13
26Ronja GirardOK Kontinent49:09+25:5417:14
27Cornelia MöllerOK Kontinent49:12+25:5717:15
28Vanja JinnemoHjärnarps OL49:42+26:2717:26
29Mats OlssonFrosta OK53:50+30:3518:53
30Marianne ArvidssonKalmar OK58:11+34:5620:24
31Jan DahlbergHässleholms OK59:30+36:1520:52
32Eivor NydahlStigmännen Karlshamns OK1:04:54+41:3922:46
33Aina NordströmFK Göingarna1:18:13+54:5827:26
Karin Andersson (Nyström)IF Hagenej start
Marie FranssonUlricehamns OKej start

Öppen motion 5

3 510 m, 54 startande
PlacNamnOrganisationTidDiffKm-tid R
1Maria SibilevaKarlskrona SoK30:188:37
2Anders BergKlubblös30:43+0:258:45
3Jesper HaglundOK Djerf31:15+0:578:54
4Bjorn NordvikKolbotn & Skimt OL33:36+3:189:34
5Stefan CaleklintKarlskrona SoK33:40+3:229:35
6Mattias ErikssonTrollhättans SOK34:14+3:569:45
7Per Soares OlssonSimrishamns OK35:09+4:5110:00
8Mikael ThomassonFK Göingarna36:30+6:1210:23
9Anders HanssonOK Kontinent37:51+7:3310:47
10Daniel SeverinssonHalmstad OK37:58+7:4010:49
10Oscar WestHalmstad OK37:58+7:4010:49
12Simon LarssonOK Kontinent39:55+9:3711:22
13Henrik LindblomMalmö OK40:05+9:4711:25
14Denise NybergOK Kontinent40:41+10:2311:35
15Jenny GustafssonLunds OK40:49+10:3111:37
16Anna LindqvistOK Stigen41:38+11:2011:51
17Maria GusedFalkenbergs OK42:49+12:3112:11
18Malin JohanssonOK Älme43:42+13:2412:27
19Liselotte JohanssonOK Löftan44:46+14:2812:45
20Mia ÅbergEslövs FK45:26+15:0812:56
21Katarina VartiaOK Löftan46:03+15:4513:07
22Emma LundgrenFalköpings AIK OK46:25+16:0713:13
23Eva OlssonFrosta OK46:35+16:1713:16
24Kajsa LarssonMalmö OK46:58+16:4013:22
25Maria SkoogIF Hagen47:49+17:3113:37
26Jan VernströmRonneby OK48:19+18:0113:45
27Maria VernströmRonneby OK48:21+18:0313:46
28Anders GusedFalkenbergs OK48:25+18:0713:47
29Mikael LindGotlands Bro OK48:39+18:2113:51
30Mikael FribergHelsingborgs SOK48:56+18:3813:56
31Kerstin OlvegårdFK Göingarna49:18+19:0014:02
32Karolina SvenssonFK Åsen49:34+19:1614:07
33Kajsa NilssonHärlövs IF50:30+20:1214:23
34Tommy OlssonTorsås OK50:35+20:1714:24
35Kerstin WessbergHärlövs IF51:52+21:3414:46
36Karin CederlöfKlubblös51:54+21:3614:47
37Hanna UllmanSkåneslättens OK52:32+22:1414:58
38Henrik ViktorssonOK Skogsfalken52:51+22:3315:03
39Bo CederlöfKlubblös54:20+24:0215:28
40Håkan NybergOK Kontinent56:11+25:5316:00
41Kerstin DahlHärlövs IF56:18+26:0016:02
42Malin HäggströmAndrarums IF56:55+26:3716:12
43Jan WessbergHärlövs IF58:22+28:0416:37
44Tina NielsenBallerup OK58:32+28:1416:40
45Ulla OlssonTorsås OK59:56+29:3817:04
46Isabella KirschnerOK Orion1:00:34+30:1617:15
47Janni Anette HelwegBallerup OK1:03:14+32:5618:00
48Linn LindblomMalmö OK1:03:53+33:3518:12
49Jacob RosenfeldStigmännen Karlshamns OK1:06:31+36:1318:57
50Anneli AabyeBallerup OK1:09:16+38:5819:44
51Stig OlssonLunds OK1:27:18+57:0024:52
52Åsa GrenaboHjobygdens OK1:30:11+59:5325:41
Erik PålssonOK Kontinentej godkänd
Gunilla ÖstergrenAlvesta SOKej godkänd

Öppen motion 7

3 000 m, 61 startande
PlacNamnOrganisationTidDiffKm-tid R
1Mats AnderssonOK Orion20:176:45
2Anders StåhlHjärnarps OL24:26+4:098:08
3Owe NilssonStigmännen Karlshamns OK25:21+5:048:27
4Dan LundstedtMullsjö SOK25:55+5:388:38
5Wilma MarkholmSkåneslättens OK26:40+6:238:53
6Stefan G LarssonOK Njudung27:19+7:029:06
7Rebecca HardenFK Boken27:58+7:419:19
8Annika LeufrénÅmåls OK28:00+7:439:20
9Robert SkoogIF Hagen28:03+7:469:21
10Jenny VinbladLunds OK29:12+8:559:44
11Peter HeldFK Åsen30:08+9:5110:02
12Camilla CarlssonHärlövs IF30:09+9:5210:03
13Bengt-Göran FrantzStigmännen Karlshamns OK30:15+9:5810:05
14Hans LindgrenOK Skogshjortarna31:41+11:2410:33
15Peter SunnegårdhRonneby OK32:34+12:1710:51
16Gunilla MartinssonFalkenbergs OK34:18+14:0111:26
17Sten Åke KvistIS Kullen35:40+15:2311:53
18Karin JohanssonFK Göingarna36:19+16:0212:06
19Kenneth JohanessonKlubblös36:24+16:0712:08
20Torgny ÅstedtHärlövs IF37:07+16:5012:22
21Sven Olle SöderbergOK Skogsfalken37:37+17:2012:32
22Christina NilssonAndrarums IF38:33+18:1612:51
23Mats PeterssonStigmännen Karlshamns OK39:15+18:5813:05
24Olle RingRonneby OK39:26+19:0913:08
25Mats RosénHästveda OK40:04+19:4713:21
26Barbro MartinssonOK Tyringe40:14+19:5713:24
27Stina GunnarssonHärlövs IF41:11+20:5413:43
28Thomas VinbladLunds OK41:30+21:1313:50
29Sara JägstedtHalmstad OK41:34+21:1713:51
30Lisbeth LindebergMalmö OK41:50+21:3313:56
31Marie SvenssonFK Åsen42:06+21:4914:02
32Roland ErikssonHästveda OK42:09+21:5214:03
33Rolf HallbergFK Finn42:23+22:0614:07
34Åsa PetterssonSäterbygdens OK43:29+23:1214:29
35Semona NilssonOK Orion44:26+24:0914:48
36Ingvar PerssonOK Tyringe44:38+24:2114:52
37Eva ArvidssonAlvesta SOK44:56+24:3914:58
38Lennart MånssonRingsjö OK45:03+24:4615:01
39Krister LindebergMalmö OK45:35+25:1815:11
40Per-Ola MelanderStigmännen Karlshamns OK45:41+25:2415:13
41Rikard SwedenborgLunds OK47:44+27:2715:54
42Gert IvarssonOK Skogshjortarna48:08+27:5116:02
43Roland EkelöfStigmännen Karlshamns OK48:54+28:3716:18
44Britt-Marie CarlssonSOK Viljan48:58+28:4116:19
45Peter RosvallFrosta OK49:51+29:3416:37
46Per-Inge ErikssonStigmännen Karlshamns OK50:31+30:1416:50
47Rolf NilssonAndrarums IF51:09+30:5217:03
48Annika JohanssonOK Alehof52:35+32:1817:31
49Kristina LandgrenMalmö OK53:15+32:5817:45
50Roland OffrellFrosta OK54:20+34:0318:06
51Carin BergmanLunds OK56:01+35:4418:40
52Bengt EdvardssonOK Torfinn57:31+37:1419:10
53Barbro NilssonAlvesta SOK59:22+39:0519:47
54Marie NordströmHjärnarps OL1:06:14+45:5722:04
55Maria Wallin JohanssonOK Skogshjortarna1:21:00+1:00:4327:00
56Hanna AhlströmLunds OK1:25:54+1:05:3728:38
57Olivia LarssonLunds OK1:25:55+1:05:3828:38
58Ulf MinörLunds OK1:26:29+1:06:1228:49
Helen NilssonHärlövs IFej godkänd
Hans-Inge ReimersHästveda OKutgått
Marianne OffrellFrosta OKutgått

Öppen motion 8

4 640 m, 58 startande
PlacNamnOrganisationTidDiffKm-tid R
1Ingvar ÅkessonIK Hakarpspojkarna24:415:19
2Emil BjörnlingerIK Hakarpspojkarna25:24+0:435:28
3Håkan GunnarssonFK Göingarna26:57+2:165:48
4Espen JakobsenIL Tyrving28:16+3:356:05
5Per KarlssonFredrikstad SK29:20+4:396:19
6Håkan LindströmRonneby OK29:29+4:486:21
7Lasse JanssonEksjö SOK29:44+5:036:24
8Emil WestessonOK Kontinent29:59+5:186:27
8Lars CarlssonOK Orion29:59+5:186:27
10Heide PerssonAndrarums IF30:37+5:566:35
11Samuel ÖrnMarkaryds FK30:54+6:136:39
12Mattias ÅbergEslövs FK32:54+8:137:05
13Nils BergmanKlubblös33:51+9:107:17
14Martin JönssonSkåneslättens OK33:52+9:117:17
15Moltas ViebkeMalmö OK35:27+10:467:38
16Fredrik StåhlHjärnarps OL35:39+10:587:40
17Mathias PerssonHelsingborgs SOK36:03+11:227:46
18Peo KarlssonKlubblös36:09+11:287:47
19Hans PerssonAndrarums IF36:21+11:407:50
20Fredrik PerssonFK Åsen37:58+13:178:10
21Björn CarlssonSkåneslättens OK38:35+13:548:18
22Erica EkKlubblös39:24+14:438:29
23Jonas ÅhlinHelsingborgs SOK39:31+14:508:30
24Henrik JohannessonRonneby OK40:16+15:358:40
25André BjärbyFrosta OK41:04+16:238:51
26Per RudqvistHelsingborgs SOK41:17+16:368:53
27Robert BertilssonLunds OK42:55+18:149:14
28Magnus JohanssonFÖRSVARSMAKTEN42:59+18:189:15
29Maria ÖlwegårdFjärås AIK43:30+18:499:22
30Göran MattssonSkåneslättens OK44:40+19:599:37
31Marielle NilssonAndrarums IF46:35+21:5410:02
32Matilda JohanssonIFK Hedemora OK46:41+22:0010:03
33Willie OlssonRävetofta OK48:32+23:5110:27
34Richard JohanssonFK Åsen49:14+24:3310:36
35Bengt BengtssonTormestorps IF49:44+25:0310:43
35Stina OlanderssonOK Tyringe49:44+25:0310:43
37Paul IripKlubblös53:00+28:1911:25
38Cecilia TofteredIF Rigor55:09+30:2811:53
39Niklas KarklinsLunds OK56:11+31:3012:06
40Kjell VilhelmssonAndrarums IF58:51+34:1012:40
41Oscar GrönvallHelsingborgs SOK1:02:13+37:3213:24
42Göran von RosenMalmö OK1:02:51+38:1013:32
43Torbjörn MovertOK Kompassen1:03:03+38:2213:35
44Annika FrantzStigmännen Karlshamns OK1:03:22+38:4113:39
45Bo EkKlubblös1:03:37+38:5613:42
46Bengt SalomonssonSkåneslättens OK1:04:52+40:1113:58
47Helena SonessonFalköpings AIK OK1:10:00+45:1915:05
48Oscar LundbladLunds OK1:10:44+46:0315:14
49Clara LundbladLunds OK1:11:03+46:2215:18
50Markus PålssonOK Kompassen1:20:02+55:2117:14
51Johan JersbladVästerviks OK1:24:43+1:00:0218:15
52Henrik LundinLunds OK1:32:31+1:07:5019:56
53Richard BengtssonLunds OK1:32:40+1:07:5919:58
Jonas EnarssonLunds OKej godkänd
Peter HedbergLunds OKej godkänd
Lars KarlssonRingsjö OKej godkänd
Maureen Olsson LoLunds OKej godkänd
Stefan GraadIF Rigorutgått
Micael ElmbladBredaryds SOKej start

Öppen motion 12

1 740 m, 9 startande
PlacNamnOrganisationTidDiffKm-tid R
1Elna LindqvistKlubblös16:499:39
2Emma NashSV Parkentin16:59+0:109:45
3Anton HenryssonKlubblös19:24+2:3511:08
4Love HenryssonKlubblös22:35+5:4612:58
5Lilly BergenfurSkattkärrs IF22:59+6:1013:12
6Carla BirgerssonOK Pan-Kristianstad25:15+8:2614:30
7Johan GusedFalkenbergs OK25:59+9:1014:55
8Ellen PålssonOK Kontinent27:18+10:2915:41
9Elliot LidholmOK Pan-Kristianstad52:16+35:2730:02

Öppen motion 13

3 520 m, 20 startande
PlacNamnOrganisationTidDiffKm-tid R
1Jan NilssonAndrarums IF25:067:07
2David BengtssonFK Åsen29:49+4:438:28
3Gustav BäcklundRonneby OK32:49+7:439:19
4Björn MöllerOK Kontinent33:58+8:529:38
5Pia-Maria BondessonFrosta OK37:44+12:3810:43
6Love BerzellOK Ravinen42:49+17:4312:09
7Henrik EklundLunds OK43:31+18:2512:21
8Susanne JohannessonRonneby OK46:02+20:5613:04
9Lena StrandMarkaryds FK46:03+20:5713:04
10Claes LinseforsLunds OK48:07+23:0113:40
11Leif KarlssonFrosta OK50:04+24:5814:13
12Monika FredrikssonKarlskrona SoK54:22+29:1615:26
13Ronny FredrikssonKarlskrona SoK54:33+29:2715:29
14Elena KurashovaFK Åsen57:42+32:3616:23
15Anders BertilssonOK Pan-Kristianstad59:28+34:2216:53
16Susanne GöranssonFrosta OK1:02:07+37:0117:38
16Natalia LantzFrosta OK1:02:07+37:0117:38
18Bo JanssonStigmännen Karlshamns OK1:02:20+37:1417:42
19Gustaf SchejaFrosta OK1:08:55+43:4919:34
Lotta LinseforsLunds OKej godkänd
Ingela KlintbergEksjö SOKej start

Vid felaktigheter i resultatlistan, kontakta i första hand tävlingsarrangören!

Annonser